Location: Hains Lake
(37.8540°N, 99.8578°W)
Time: 09:22:39
(UTC+00:00)

Tiros 1 despin weight - Pass Details

Date: 22 April 2021
Orbit: 593 x 642 km, 48.2° (Epoch: 07 May)

Event Time Altitude Azimuth Distance (km) Brightness Sun altitude
Rises 10:41:06 0° 236° (SW) 2,919 - -14.2°
Reaches altitude 10° 10:43:25 10° 237° (WSW) 2,008 - -13.8°
Exits shadow 10:44:59 21° 238° (WSW) 1,418 ? -13.5°
Maximum altitude 10:48:04 86° 325° (NW) 632 ? -13.0°
Drops below altitude 10° 10:52:39 10° 56° (NE) 1,987 ? -12.2°
Sets 10:54:57 0° 57° (ENE) 2,886 ? -11.8°
